Location: Berlin
(52.5170°N, 13.4000°E)
Time: 22:39:20
(UTC+02:00)

ISS - Pass Details

Date: 21 July 2018
Orbit: 402 x 408 km, 51.6° (Epoch: 22 July)

Event Time Altitude Azimuth Distance (km) Brightness Sun altitude
Rises 22:53:33 0° 235° (SW) 2,316 0.0 -11.1°
Reaches altitude 10° 22:55:41 10° 228° (SW) 1,460 -1.1 -11.3°
Maximum altitude 22:58:47 40° 157° (SSE) 613 -3.4 -11.5°
Drops below altitude 10° 23:01:54 10° 87° (E) 1,468 -1.3 -11.8°
Sets 23:04:03 0° 79° (E) 2,332 -0.2 -11.9°
